Time,TemperatureF,DewpointF,PressureIn,WindDirection,WindDirectionDegrees,WindSpeedMPH,WindSpeedGustMPH,Humidity,HourlyPrecipIn,Conditions,Clouds,dailyrainin,SoftwareType,DateUTC
2013-02-25 00:01:00,52.0,14.0,30.21,East,98,0.0,-999.0,22,-99.99,,,-99.99,,2013-02-25 08:01:00,
2013-02-25 00:31:00,52.0,14.0,30.23,ENE,59,0.0,-999.0,22,-99.99,,,-99.99,,2013-02-25 08:31:00,
2013-02-25 00:41:00,52.0,14.0,30.23,ENE,59,0.0,-999.0,22,-99.99,,,-99.99,,2013-02-25 08:41:00,
2013-02-25 00:52:00,51.0,15.0,30.23,ENE,59,0.0,-999.0,23,-99.99,,,-99.99,,2013-02-25 08:52:00,
2013-02-25 01:01:00,50.0,14.0,30.24,ENE,71,0.0,-999.0,23,-99.99,,,-99.99,,2013-02-25 09:01:00,
2013-02-25 01:12:00,50.0,14.0,30.24,ENE,71,0.0,-999.0,23,-99.99,,,-99.99,,2013-02-25 09:12:00,
2013-02-25 01:21:00,50.0,14.0,30.24,East,80,0.0,-999.0,23,-99.99,,,-99.99,,2013-02-25 09:21:00,
2013-02-25 01:31:00,49.0,15.0,30.25,East,80,0.0,-999.0,25,-99.99,,,-99.99,,2013-02-25 09:31:00,
2013-02-25 01:41:00,49.0,15.0,30.25,East,80,0.0,-999.0,25,-99.99,,,-99.99,,2013-02-25 09:41:00,
2013-02-25 01:51:00,47.0,15.0,30.25,East,80,0.0,-999.0,27,-99.99,,,-99.99,,2013-02-25 09:51:00,
2013-02-25 02:01:00,46.0,15.0,30.25,East,80,0.0,-999.0,28,-99.99,,,-99.99,,2013-02-25 10:01:00,
2013-02-25 02:11:00,45.0,15.0,30.25,East,80,0.0,-999.0,30,-99.99,,,-99.99,,2013-02-25 10:11:00,
2013-02-25 02:21:00,45.0,15.0,30.25,East,80,0.0,-999.0,30,-99.99,,,-99.99,,2013-02-25 10:21:00,
2013-02-25 02:31:00,44.0,16.0,30.24,East,80,0.0,-999.0,32,-99.99,,,-99.99,,2013-02-25 10:31:00,
2013-02-25 02:41:00,44.0,16.0,30.24,East,80,0.0,-999.0,32,-99.99,,,-99.99,,2013-02-25 10:41:00,
2013-02-25 02:52:00,42.0,16.0,30.23,East,80,0.0,-999.0,34,-99.99,,,-99.99,,2013-02-25 10:52:00,
2013-02-25 03:01:00,42.0,17.0,30.24,East,80,0.0,-999.0,36,-99.99,,,-99.99,,2013-02-25 11:01:00,
2013-02-25 03:11:00,42.0,17.0,30.24,East,80,0.0,-999.0,36,-99.99,,,-99.99,,2013-02-25 11:11:00,
2013-02-25 03:21:00,41.0,17.0,30.24,East,80,0.0,-999.0,38,-99.99,,,-99.99,,2013-02-25 11:21:00,
2013-02-25 03:32:00,40.0,16.0,30.24,East,80,0.0,-999.0,38,-99.99,,,-99.99,,2013-02-25 11:32:00,
2013-02-25 03:41:00,40.0,16.0,30.24,East,80,0.0,-999.0,38,-99.99,,,-99.99,,2013-02-25 11:41:00,
2013-02-25 03:52:00,40.0,17.0,30.24,East,80,0.0,-999.0,39,-99.99,,,-99.99,,2013-02-25 11:52:00,
2013-02-25 04:01:00,41.0,17.0,30.23,East,80,0.0,-999.0,38,-99.99,,,-99.99,,2013-02-25 12:01:00,
2013-02-25 04:11:00,41.0,17.0,30.23,East,80,0.0,-999.0,38,-99.99,,,-99.99,,2013-02-25 12:11:00,
2013-02-25 04:21:00,41.0,16.0,30.23,East,80,0.0,-999.0,36,-99.99,,,-99.99,,2013-02-25 12:21:00,
2013-02-25 04:32:00,41.0,17.0,30.23,East,83,0.0,-999.0,37,-99.99,,,-99.99,,2013-02-25 12:32:00,
2013-02-25 04:41:00,41.0,17.0,30.23,East,83,0.0,-999.0,37,-99.99,,,-99.99,,2013-02-25 12:41:00,
2013-02-25 04:53:00,39.0,17.0,30.23,East,83,0.0,-999.0,40,-99.99,,,-99.99,,2013-02-25 12:53:00,
2013-02-25 05:01:00,39.0,17.0,30.24,East,83,0.0,-999.0,41,-99.99,,,-99.99,,2013-02-25 13:01:00,
2013-02-25 05:11:00,39.0,17.0,30.24,East,83,0.0,-999.0,41,-99.99,,,-99.99,,2013-02-25 13:11:00,
2013-02-25 05:21:00,39.0,17.0,30.23,East,83,0.0,-999.0,40,-99.99,,,-99.99,,2013-02-25 13:21:00,
2013-02-25 05:31:00,39.0,17.0,30.23,East,84,0.0,-999.0,40,-99.99,,,-99.99,,2013-02-25 13:31:00,
2013-02-25 05:41:00,39.0,17.0,30.23,East,84,0.0,-999.0,40,-99.99,,,-99.99,,2013-02-25 13:41:00,
2013-02-25 05:51:00,39.0,17.0,30.23,East,84,0.0,-999.0,41,-99.99,,,-99.99,,2013-02-25 13:51:00,
2013-02-25 06:02:00,38.0,17.0,30.23,East,84,0.0,-999.0,42,-99.99,,,-99.99,,2013-02-25 14:02:00,
2013-02-25 06:21:00,38.0,18.0,30.23,East,83,0.0,-999.0,44,-99.99,,,-99.99,,2013-02-25 14:21:00,
2013-02-25 06:31:00,37.0,18.0,30.23,East,84,0.0,-999.0,46,-99.99,,,-99.99,,2013-02-25 14:31:00,
2013-02-25 06:41:00,37.0,18.0,30.23,East,84,0.0,-999.0,46,-99.99,,,-99.99,,2013-02-25 14:41:00,
2013-02-25 06:52:00,37.0,19.0,30.23,East,83,0.0,-999.0,48,-99.99,,,-99.99,,2013-02-25 14:52:00,
2013-02-25 07:02:00,36.0,19.0,30.23,East,84,0.0,-999.0,50,-99.99,,,-99.99,,2013-02-25 15:02:00,
2013-02-25 07:11:00,36.0,19.0,30.23,East,84,0.0,-999.0,50,-99.99,,,-99.99,,2013-02-25 15:11:00,
2013-02-25 07:21:00,36.0,20.0,30.24,East,84,0.0,-999.0,51,-99.99,,,-99.99,,2013-02-25 15:21:00,
2013-02-25 07:32:00,37.0,21.0,30.24,East,83,0.0,-999.0,52,-99.99,,,-99.99,,2013-02-25 15:32:00,
2013-02-25 07:41:00,37.0,21.0,30.24,East,83,0.0,-999.0,52,-99.99,,,-99.99,,2013-02-25 15:41:00,
2013-02-25 07:51:00,38.0,22.0,30.24,East,84,0.0,-999.0,51,-99.99,,,-99.99,,2013-02-25 15:51:00,
2013-02-25 08:01:00,40.0,22.0,30.24,East,84,0.0,-999.0,49,-99.99,,,-99.99,,2013-02-25 16:01:00,
2013-02-25 08:11:00,40.0,22.0,30.24,East,84,0.0,-999.0,49,-99.99,,,-99.99,,2013-02-25 16:11:00,
2013-02-25 08:21:00,40.0,22.0,30.24,East,84,0.0,-999.0,49,-99.99,,,-99.99,,2013-02-25 16:21:00,
2013-02-25 08:31:00,46.0,22.0,30.25,East,84,0.0,-999.0,39,-99.99,,,-99.99,,2013-02-25 16:31:00,
2013-02-25 08:41:00,46.0,22.0,30.25,East,84,0.0,-999.0,39,-99.99,,,-99.99,,2013-02-25 16:41:00,
2013-02-25 08:52:00,52.0,21.0,30.25,East,83,0.0,-999.0,29,-99.99,,,-99.99,,2013-02-25 16:52:00,
2013-02-25 09:01:00,55.0,23.0,30.24,East,83,0.0,-999.0,28,-99.99,,,-99.99,,2013-02-25 17:01:00,
2013-02-25 09:31:00,60.0,19.0,30.24,East,84,0.0,-999.0,20,-99.99,,,-99.99,,2013-02-25 17:31:00,
2013-02-25 09:41:00,60.0,19.0,30.24,East,84,0.0,-999.0,20,-99.99,,,-99.99,,2013-02-25 17:41:00,
2013-02-25 09:52:00,62.0,19.0,30.23,East,84,0.0,-999.0,19,-99.99,,,-99.99,,2013-02-25 17:52:00,
2013-02-25 10:01:00,63.0,20.0,30.22,East,83,0.0,-999.0,19,-99.99,,,-99.99,,2013-02-25 18:01:00,
2013-02-25 10:21:00,63.0,21.0,30.22,ENE,67,0.0,-999.0,20,-99.99,,,-99.99,,2013-02-25 18:21:00,
2013-02-25 10:32:00,64.0,20.0,30.22,WNW,295,0.0,-999.0,18,-99.99,,,-99.99,,2013-02-25 18:32:00,
2013-02-25 10:41:00,64.0,20.0,30.22,WNW,295,0.0,-999.0,18,-99.99,,,-99.99,,2013-02-25 18:41:00,
2013-02-25 10:51:00,64.0,20.0,30.22,West,267,0.0,-999.0,18,-99.99,,,-99.99,,2013-02-25 18:51:00,
2013-02-25 11:01:00,65.0,23.0,30.22,WSW,256,0.0,-999.0,20,-99.99,,,-99.99,,2013-02-25 19:01:00,
2013-02-25 11:11:00,65.0,23.0,30.22,WSW,256,0.0,-999.0,20,-99.99,,,-99.99,,2013-02-25 19:11:00,
2013-02-25 11:21:00,65.0,20.0,30.22,WSW,252,0.0,-999.0,18,-99.99,,,-99.99,,2013-02-25 19:21:00,
2013-02-25 11:31:00,66.0,21.0,30.21,West,277,0.0,-999.0,18,-99.99,,,-99.99,,2013-02-25 19:31:00,
2013-02-25 11:41:00,66.0,21.0,30.21,West,277,0.0,-999.0,18,-99.99,,,-99.99,,2013-02-25 19:41:00,
2013-02-25 11:52:00,66.0,21.0,30.21,West,277,0.0,-999.0,18,-99.99,,,-99.99,,2013-02-25 19:52:00,
2013-02-25 12:01:00,66.0,25.0,30.19,SW,234,1.0,-999.0,21,-99.99,,,-99.99,,2013-02-25 20:01:00,
2013-02-25 12:11:00,66.0,25.0,30.19,SW,234,1.0,-999.0,21,-99.99,,,-99.99,,2013-02-25 20:11:00,
2013-02-25 12:21:00,66.0,25.0,30.19,West,267,1.0,-999.0,21,-99.99,,,-99.99,,2013-02-25 20:21:00,
2013-02-25 12:31:00,66.0,26.0,30.19,WSW,257,1.0,-999.0,22,-99.99,,,-99.99,,2013-02-25 20:31:00,
2013-02-25 12:41:00,66.0,26.0,30.19,WSW,257,1.0,-999.0,22,-99.99,,,-99.99,,2013-02-25 20:41:00,
2013-02-25 12:52:00,66.0,26.0,30.18,WSW,244,1.0,-999.0,22,-99.99,,,-99.99,,2013-02-25 20:52:00,
2013-02-25 13:01:00,66.0,26.0,30.18,WSW,253,1.0,-999.0,22,-99.99,,,-99.99,,2013-02-25 21:01:00,
2013-02-25 13:11:00,66.0,26.0,30.18,WSW,253,1.0,-999.0,22,-99.99,,,-99.99,,2013-02-25 21:11:00,
2013-02-25 13:21:00,66.0,26.0,30.17,West,267,2.0,-999.0,22,-99.99,,,-99.99,,2013-02-25 21:21:00,
2013-02-25 13:31:00,66.0,26.0,30.16,WNW,301,2.0,-999.0,22,-99.99,,,-99.99,,2013-02-25 21:31:00,
2013-02-25 13:41:00,66.0,26.0,30.16,WNW,301,2.0,-999.0,22,-99.99,,,-99.99,,2013-02-25 21:41:00,
2013-02-25 13:51:00,66.0,26.0,30.16,WNW,285,1.0,-999.0,22,-99.99,,,-99.99,,2013-02-25 21:51:00,
2013-02-25 14:01:00,66.0,28.0,30.16,West,266,3.0,-999.0,24,-99.99,,,-99.99,,2013-02-25 22:01:00,
2013-02-25 14:11:00,66.0,28.0,30.16,West,266,3.0,-999.0,24,-99.99,,,-99.99,,2013-02-25 22:11:00,
2013-02-25 14:21:00,66.0,27.0,30.15,SW,234,2.0,-999.0,23,-99.99,,,-99.99,,2013-02-25 22:21:00,
2013-02-25 14:31:00,65.0,27.0,30.15,West,272,2.0,-999.0,24,-99.99,,,-99.99,,2013-02-25 22:31:00,
2013-02-25 14:41:00,65.0,27.0,30.15,West,272,2.0,-999.0,24,-99.99,,,-99.99,,2013-02-25 22:41:00,
2013-02-25 14:51:00,65.0,29.0,30.15,NW,321,2.0,-999.0,26,-99.99,,,-99.99,,2013-02-25 22:51:00,
2013-02-25 15:01:00,65.0,30.0,30.15,WSW,240,1.0,-999.0,27,-99.99,,,-99.99,,2013-02-25 23:01:00,
2013-02-25 15:11:00,65.0,30.0,30.15,WSW,240,1.0,-999.0,27,-99.99,,,-99.99,,2013-02-25 23:11:00,
2013-02-25 15:22:00,64.0,31.0,30.14,WSW,253,2.0,-999.0,29,-99.99,,,-99.99,,2013-02-25 23:22:00,
2013-02-25 15:31:00,64.0,31.0,30.14,WSW,238,1.0,-999.0,29,-99.99,,,-99.99,,2013-02-25 23:31:00,
2013-02-25 15:41:00,64.0,31.0,30.14,WSW,238,1.0,-999.0,29,-99.99,,,-99.99,,2013-02-25 23:41:00,
2013-02-25 15:51:00,63.0,31.0,30.14,SW,217,1.0,-999.0,30,-99.99,,,-99.99,,2013-02-25 23:51:00,
2013-02-25 16:01:00,63.0,32.0,30.14,West,263,1.0,-999.0,31,-99.99,,,-99.99,,2013-02-26 00:01:00,
2013-02-25 16:11:00,63.0,32.0,30.14,West,263,1.0,-999.0,31,-99.99,,,-99.99,,2013-02-26 00:11:00,
2013-02-25 16:21:00,63.0,34.0,30.13,WNW,288,0.0,-999.0,34,-99.99,,,-99.99,,2013-02-26 00:21:00,
2013-02-25 16:32:00,62.0,35.0,30.13,WNW,298,1.0,-999.0,36,-99.99,,,-99.99,,2013-02-26 00:32:00,
2013-02-25 16:41:00,62.0,35.0,30.13,WNW,298,1.0,-999.0,36,-99.99,,,-99.99,,2013-02-26 00:41:00,
2013-02-25 16:51:00,62.0,35.0,30.13,SW,219,0.0,-999.0,37,-99.99,,,-99.99,,2013-02-26 00:51:00,
2013-02-25 17:01:00,61.0,35.0,30.12,SSW,196,0.0,-999.0,38,-99.99,,,-99.99,,2013-02-26 01:01:00,
2013-02-25 17:11:00,61.0,35.0,30.12,SSW,196,0.0,-999.0,38,-99.99,,,-99.99,,2013-02-26 01:11:00,
2013-02-25 17:21:00,60.0,35.0,30.11,West,259,0.0,-999.0,39,-99.99,,,-99.99,,2013-02-26 01:21:00,
2013-02-25 17:31:00,59.0,36.0,30.11,SW,236,0.0,-999.0,42,-99.99,,,-99.99,,2013-02-26 01:31:00,
2013-02-25 17:41:00,59.0,36.0,30.11,SW,236,0.0,-999.0,42,-99.99,,,-99.99,,2013-02-26 01:41:00,
2013-02-25 17:51:00,58.0,37.0,30.11,SW,219,0.0,-999.0,45,-99.99,,,-99.99,,2013-02-26 01:51:00,
2013-02-25 18:01:00,57.0,37.0,30.11,SW,218,0.0,-999.0,47,-99.99,,,-99.99,,2013-02-26 02:01:00,
2013-02-25 18:11:00,57.0,37.0,30.11,SW,218,0.0,-999.0,47,-99.99,,,-99.99,,2013-02-26 02:11:00,
2013-02-25 18:21:00,56.0,37.0,30.11,SW,219,0.0,-999.0,49,-99.99,,,-99.99,,2013-02-26 02:21:00,
2013-02-25 18:31:00,55.0,37.0,30.10,SW,219,0.0,-999.0,50,-99.99,,,-99.99,,2013-02-26 02:31:00,
2013-02-25 18:41:00,55.0,37.0,30.10,SW,219,0.0,-999.0,50,-99.99,,,-99.99,,2013-02-26 02:41:00,
2013-02-25 18:52:00,53.0,36.0,30.11,SW,218,0.0,-999.0,52,-99.99,,,-99.99,,2013-02-26 02:52:00,
2013-02-25 19:01:00,51.0,35.0,30.11,SW,218,0.0,-999.0,55,-99.99,,,-99.99,,2013-02-26 03:01:00,
2013-02-25 19:11:00,51.0,35.0,30.11,SW,218,0.0,-999.0,55,-99.99,,,-99.99,,2013-02-26 03:11:00,
2013-02-25 19:21:00,50.0,36.0,30.11,SW,218,0.0,-999.0,58,-99.99,,,-99.99,,2013-02-26 03:21:00,
2013-02-25 19:31:00,49.0,36.0,30.12,SW,219,0.0,-999.0,60,-99.99,,,-99.99,,2013-02-26 03:31:00,
2013-02-25 19:41:00,49.0,36.0,30.12,SW,219,0.0,-999.0,60,-99.99,,,-99.99,,2013-02-26 03:41:00,
2013-02-25 19:52:00,48.0,35.0,30.12,SW,218,0.0,-999.0,61,-99.99,,,-99.99,,2013-02-26 03:52:00,
2013-02-25 20:01:00,47.0,35.0,30.13,SW,219,0.0,-999.0,62,-99.99,,,-99.99,,2013-02-26 04:01:00,
2013-02-25 20:11:00,47.0,35.0,30.13,SW,219,0.0,-999.0,62,-99.99,,,-99.99,,2013-02-26 04:11:00,
2013-02-25 20:21:00,47.0,35.0,30.12,SW,219,0.0,-999.0,62,-99.99,,,-99.99,,2013-02-26 04:21:00,
2013-02-25 20:31:00,46.0,34.0,30.13,SW,219,0.0,-999.0,63,-99.99,,,-99.99,,2013-02-26 04:31:00,
2013-02-25 20:42:00,46.0,34.0,30.13,SW,219,0.0,-999.0,63,-99.99,,,-99.99,,2013-02-26 04:42:00,
2013-02-25 20:51:00,46.0,34.0,30.13,SW,219,0.0,-999.0,63,-99.99,,,-99.99,,2013-02-26 04:51:00,
2013-02-25 21:01:00,45.0,34.0,30.12,SW,218,0.0,-999.0,64,-99.99,,,-99.99,,2013-02-26 05:01:00,
2013-02-25 21:11:00,45.0,34.0,30.13,SW,218,0.0,-999.0,65,-99.99,,,-99.99,,2013-02-26 05:11:00,
2013-02-25 21:21:00,45.0,34.0,30.13,SW,218,0.0,-999.0,65,-99.99,,,-99.99,,2013-02-26 05:21:00,
2013-02-25 21:31:00,44.0,33.0,30.13,SW,219,0.0,-999.0,66,-99.99,,,-99.99,,2013-02-26 05:31:00,
2013-02-25 21:42:00,44.0,33.0,30.13,SW,219,0.0,-999.0,66,-99.99,,,-99.99,,2013-02-26 05:42:00,
2013-02-25 21:52:00,43.0,32.0,30.13,SW,219,0.0,-999.0,66,-99.99,,,-99.99,,2013-02-26 05:52:00,
2013-02-25 22:01:00,43.0,32.0,30.13,SW,219,0.0,-999.0,66,-99.99,,,-99.99,,2013-02-26 06:01:00,
2013-02-25 22:11:00,43.0,32.0,30.13,SW,219,0.0,-999.0,66,-99.99,,,-99.99,,2013-02-26 06:11:00,
2013-02-25 22:21:00,43.0,33.0,30.14,SW,219,0.0,-999.0,67,-99.99,,,-99.99,,2013-02-26 06:21:00,
2013-02-25 22:31:00,43.0,33.0,30.14,SW,219,0.0,-999.0,67,-99.99,,,-99.99,,2013-02-26 06:31:00,
2013-02-25 22:41:00,43.0,33.0,30.14,SW,219,0.0,-999.0,67,-99.99,,,-99.99,,2013-02-26 06:41:00,
2013-02-25 22:51:00,43.0,32.0,30.14,SW,218,0.0,-999.0,66,-99.99,,,-99.99,,2013-02-26 06:51:00,
2013-02-25 23:01:00,43.0,32.0,30.13,SW,219,0.0,-999.0,65,-99.99,,,-99.99,,2013-02-26 07:01:00,
2013-02-25 23:11:00,43.0,32.0,30.13,SW,219,0.0,-999.0,65,-99.99,,,-99.99,,2013-02-26 07:11:00,
2013-02-25 23:21:00,42.0,31.0,30.13,SW,218,0.0,-999.0,66,-99.99,,,-99.99,,2013-02-26 07:21:00,
2013-02-25 23:31:00,43.0,32.0,30.12,SW,219,0.0,-999.0,66,-99.99,,,-99.99,,2013-02-26 07:31:00,
2013-02-25 23:41:00,43.0,32.0,30.12,SW,219,0.0,-999.0,66,-99.99,,,-99.99,,2013-02-26 07:41:00,
2013-02-25 23:51:00,44.0,32.0,30.12,SW,219,0.0,-999.0,63,-99.99,,,-99.99,,2013-02-26 07:51:00,